Location: Recife
(8.0585°S, 34.8848°W)
Time: 20:56:47
(UTC-03:00)

A-11 Canister half - Pass Details

Date: 21 April 2026
Orbit: 1523 x 1684 km, 47.3° (Epoch: 16 May)

Event Time Altitude Azimuth Distance (km) Brightness Sun altitude
Rises 10:18:41 0° 279° (W) 4,790 11.5 65.1°
Reaches altitude 10° 10:23:10 10° 261° (W) 3,778 11.0 65.7°
Maximum altitude 10:29:13 18° 221° (SW) 3,128 10.6 66.5°
Drops below altitude 10° 10:35:14 10° 180° (S) 3,717 10.9 67.3°
Sets 10:39:39 0° 162° (SSE) 4,687 11.4 67.8°
